When you browse on this site, cookies collect data to enhance your experience and personalize the content and advertising you see.
Visit our Privacy Policy to learn more. By continuing to use the site, you agree to this use of cookies and data.

Météo par heure à Wuhai

Ce jour, 9 Juillet, Jeudi

Heure Température Précipitation Vent Pression Humidité
00:00 +26°C° 0 mm 5 m/s 660 mmHg 47%
01:00 +25°C° 0 mm 4 m/s 660 mmHg 54%
02:00 +25°C° 0 mm 4 m/s 660 mmHg 52%
03:00 +25°C° 0 mm 4 m/s 660 mmHg 50%
04:00 +25°C° 0 mm 3 m/s 659 mmHg 48%
05:00 +26°C° 0 mm 3 m/s 660 mmHg 45%
06:00 +27°C° 0 mm 3 m/s 660 mmHg 42%
07:00 +28°C° 0 mm 3 m/s 660 mmHg 39%
08:00 +29°C° 0 mm 3 m/s 660 mmHg 34%
09:00 +31°C° 0 mm 3 m/s 660 mmHg 29%
10:00 +33°C° 0 mm 4 m/s 660 mmHg 24%
11:00 +35°C° 0 mm 5 m/s 660 mmHg 20%
12:00 +36°C° 0 mm 6 m/s 660 mmHg 16%
13:00 +38°C° 0 mm 8 m/s 660 mmHg 12%
14:00 +38°C° 0 mm 8 m/s 660 mmHg 12%
15:00 +38°C° 0 mm 9 m/s 660 mmHg 11%
16:00 +38°C° 0 mm 9 m/s 660 mmHg 11%
17:00 +37°C° 0 mm 9 m/s 659 mmHg 13%
18:00 +35°C° 0 mm 9 m/s 659 mmHg 15%
19:00 +34°C° 0 mm 9 m/s 659 mmHg 17%
20:00 +33°C° 0 mm 8 m/s 659 mmHg 18%
21:00 +32°C° 0 mm 6 m/s 659 mmHg 20%
22:00 +30°C° 0 mm 4 m/s 659 mmHg 22%
23:00 +30°C° 0 mm 4 m/s 659 mmHg 23%

Demain, 10 Juillet, Vendredi

Heure Température Précipitation Vent Pression Humidité
00:00 +29°C° 0 mm 3 m/s 659 mmHg 24%
01:00 +28°C° 0 mm 2 m/s 658 mmHg 25%
02:00 +28°C° 0 mm 2 m/s 658 mmHg 27%
03:00 +27°C° 0 mm 3 m/s 658 mmHg 28%
04:00 +27°C° 0 mm 3 m/s 658 mmHg 30%
05:00 +27°C° 0 mm 3 m/s 659 mmHg 29%
06:00 +28°C° 0 mm 3 m/s 659 mmHg 28%
07:00 +29°C° 0 mm 4 m/s 659 mmHg 28%
08:00 +32°C° 0 mm 4 m/s 659 mmHg 26%
09:00 +33°C° 0 mm 4 m/s 660 mmHg 24%
10:00 +35°C° 0 mm 5 m/s 660 mmHg 22%
11:00 +36°C° 0 mm 5 m/s 660 mmHg 20%
12:00 +36°C° 0 mm 5 m/s 659 mmHg 17%
13:00 +38°C° 0 mm 6 m/s 659 mmHg 15%
14:00 +38°C° 0 mm 6 m/s 659 mmHg 15%
15:00 +38°C° 0 mm 6 m/s 658 mmHg 16%
16:00 +38°C° 0 mm 6 m/s 658 mmHg 16%
17:00 +37°C° 0 mm 5 m/s 658 mmHg 16%
18:00 +36°C° 0 mm 4 m/s 658 mmHg 17%
19:00 +35°C° 0 mm 3 m/s 658 mmHg 18%
20:00 +34°C° 0 mm 3 m/s 658 mmHg 21%
21:00 +33°C° 0 mm 4 m/s 658 mmHg 24%
22:00 +32°C° 0 mm 5 m/s 659 mmHg 27%
23:00 +30°C° 0 mm 4 m/s 659 mmHg 29%

Après-demain, 11 Juillet, Samedi

Heure Température Précipitation Vent Pression Humidité
00:00 +29°C° 0 mm 3 m/s 659 mmHg 30%
01:00 +28°C° 0 mm 2 m/s 659 mmHg 32%
02:00 +28°C° 0 mm 2 m/s 659 mmHg 33%
03:00 +27°C° 0 mm 2 m/s 659 mmHg 34%
04:00 +26°C° 0 mm 2 m/s 659 mmHg 36%
05:00 +27°C° 0 mm 2 m/s 659 mmHg 36%
06:00 +27°C° 0 mm 2 m/s 659 mmHg 36%
07:00 +27°C° 0 mm 2 m/s 659 mmHg 35%
08:00 +28°C° 0 mm 2 m/s 660 mmHg 34%
09:00 +29°C° 0 mm 2 m/s 660 mmHg 33%
10:00 +30°C° 0 mm 2 m/s 660 mmHg 32%
11:00 +31°C° 0 mm 2 m/s 660 mmHg 29%
12:00 +32°C° 0 mm 2 m/s 660 mmHg 25%
13:00 +34°C° 0 mm 3 m/s 660 mmHg 22%
14:00 +34°C° 0 mm 4 m/s 660 mmHg 25%
15:00 +33°C° 0 mm 5 m/s 660 mmHg 28%
16:00 +33°C° 0 mm 6 m/s 660 mmHg 31%
17:00 +30°C° 0.3 mm 6 m/s 660 mmHg 37%
18:00 +28°C° 0.3 mm 7 m/s 660 mmHg 44%
19:00 +26°C° 0.3 mm 7 m/s 661 mmHg 50%
20:00 +27°C° 0 mm 6 m/s 661 mmHg 47%
21:00 +27°C° 0 mm 6 m/s 662 mmHg 43%
22:00 +27°C° 0 mm 5 m/s 662 mmHg 40%
23:00 +27°C° 0 mm 4 m/s 662 mmHg 39%

12 Juillet, Dimanche

Heure Température Précipitation Vent Pression Humidité
00:00 +27°C° 0 mm 3 m/s 662 mmHg 39%
01:00 +27°C° 0 mm 2 m/s 662 mmHg 38%
02:00 +26°C° 0 mm 3 m/s 662 mmHg 44%
03:00 +25°C° 0 mm 4 m/s 661 mmHg 49%
04:00 +23°C° 0 mm 5 m/s 661 mmHg 54%
05:00 +23°C° 0 mm 5 m/s 661 mmHg 53%
06:00 +24°C° 0 mm 6 m/s 662 mmHg 52%
07:00 +24°C° 0 mm 6 m/s 662 mmHg 51%
08:00 +26°C° 0 mm 7 m/s 663 mmHg 47%
09:00 +27°C° 0 mm 7 m/s 663 mmHg 42%
10:00 +28°C° 0 mm 7 m/s 664 mmHg 38%
11:00 +29°C° 0 mm 6 m/s 664 mmHg 35%
12:00 +30°C° 0 mm 6 m/s 663 mmHg 32%
13:00 +32°C° 0 mm 5 m/s 663 mmHg 29%
14:00 +30°C° 0 mm 5 m/s 663 mmHg 29%
15:00 +30°C° 0 mm 5 m/s 663 mmHg 29%
16:00 +30°C° 0 mm 5 m/s 663 mmHg 28%
17:00 +29°C° 0 mm 6 m/s 663 mmHg 32%
18:00 +28°C° 0 mm 7 m/s 663 mmHg 37%
19:00 +27°C° 0 mm 8 m/s 663 mmHg 41%
20:00 +26°C° 0 mm 8 m/s 663 mmHg 44%
21:00 +24°C° 0 mm 7 m/s 663 mmHg 47%
22:00 +23°C° 0 mm 6 m/s 663 mmHg 50%
23:00 +23°C° 0 mm 5 m/s 663 mmHg 53%

13 Juillet, Lundi

Heure Température Précipitation Vent Pression Humidité
00:00 +23°C° 0 mm 5 m/s 662 mmHg 55%
01:00 +22°C° 0 mm 5 m/s 662 mmHg 58%
02:00 +22°C° 0 mm 4 m/s 662 mmHg 61%
03:00 +21°C° 0 mm 4 m/s 662 mmHg 64%
04:00 +21°C° 0 mm 3 m/s 662 mmHg 68%
05:00 +21°C° 0 mm 3 m/s 662 mmHg 63%
06:00 +22°C° 0 mm 3 m/s 662 mmHg 58%
07:00 +24°C° 0 mm 3 m/s 663 mmHg 53%
08:00 +26°C° 0 mm 4 m/s 663 mmHg 46%
09:00 +28°C° 0 mm 5 m/s 664 mmHg 40%
10:00 +29°C° 0 mm 6 m/s 664 mmHg 33%
11:00 +32°C° 0 mm 6 m/s 664 mmHg 30%
12:00 +33°C° 0 mm 6 m/s 664 mmHg 28%
13:00 +34°C° 0 mm 7 m/s 664 mmHg 25%
14:00 +34°C° 0 mm 7 m/s 663 mmHg 24%
15:00 +34°C° 0 mm 7 m/s 663 mmHg 23%
16:00 +35°C° 0 mm 7 m/s 663 mmHg 23%
17:00 +34°C° 0 mm 7 m/s 663 mmHg 24%
18:00 +33°C° 0 mm 7 m/s 663 mmHg 25%
19:00 +33°C° 0 mm 8 m/s 663 mmHg 27%
20:00 +32°C° 0 mm 7 m/s 663 mmHg 29%
21:00 +30°C° 0 mm 7 m/s 663 mmHg 31%
22:00 +29°C° 0 mm 7 m/s 663 mmHg 33%
23:00 +28°C° 0 mm 6 m/s 663 mmHg 36%

14 Juillet, Mardi

Heure Température Précipitation Vent Pression Humidité
00:00 +28°C° 0 mm 6 m/s 663 mmHg 40%
01:00 +27°C° 0 mm 6 m/s 663 mmHg 43%
02:00 +27°C° 0 mm 6 m/s 662 mmHg 47%
03:00 +26°C° 0 mm 5 m/s 662 mmHg 51%
04:00 +26°C° 0 mm 4 m/s 662 mmHg 55%
05:00 +26°C° 0 mm 5 m/s 663 mmHg 53%
06:00 +27°C° 0 mm 6 m/s 663 mmHg 51%
07:00 +27°C° 0 mm 6 m/s 663 mmHg 48%
08:00 +29°C° 0 mm 7 m/s 663 mmHg 43%
09:00 +30°C° 0 mm 7 m/s 664 mmHg 37%
10:00 +33°C° 0 mm 8 m/s 664 mmHg 31%
11:00 +34°C° 0 mm 8 m/s 664 mmHg 27%
12:00 +35°C° 0 mm 8 m/s 664 mmHg 24%
13:00 +37°C° 0 mm 8 m/s 664 mmHg 20%
14:00 +37°C° 0 mm 8 m/s 663 mmHg 19%
15:00 +36°C° 0 mm 7 m/s 662 mmHg 19%
16:00 +36°C° 0 mm 7 m/s 662 mmHg 18%
17:00 +35°C° 0 mm 7 m/s 662 mmHg 20%
18:00 +35°C° 0 mm 7 m/s 662 mmHg 21%
19:00 +34°C° 0 mm 6 m/s 662 mmHg 23%
20:00 +33°C° 0 mm 6 m/s 662 mmHg 25%
21:00 +32°C° 0 mm 7 m/s 662 mmHg 27%
22:00 +30°C° 0 mm 7 m/s 662 mmHg 30%
23:00 +30°C° 0 mm 7 m/s 662 mmHg 34%
Voir plus